GW1707 Weather Reports


Display with metric or nautical units.
time (UTC)temp
F
wind
direction
speed
MPH
gust
MPH
rain 1hr
in
rain 24hr
in
rain mn
in
humidity
%
barometer
mb
20260831221605 59 0 0.0 0.0 0.00 0.00 0.00 66 1019.7
20260831220113 58 0 0.0 0.0 0.00 0.00 0.00 67 1019.9
20260831214627 57 0 0.0 0.0 0.00 0.00 0.00 68 1020.0
20260831213107 57 0 0.0 0.0 0.00 0.00 0.00 68 1019.8
20260831211607 56 0 0.0 0.0 0.00 0.00 0.00 67 1019.8
20260831204604 56 0 0.0 0.0 0.00 0.00 0.00 67 1019.7
20260831203103 56 0 0.0 0.0 0.00 0.00 0.00 67 1019.7
20260831201609 55 0 0.0 0.0 0.00 0.00 0.00 67 1019.8
20260831200107 55 0 0.0 0.0 0.00 0.00 0.00 68 1020.0
20260831194605 54 0 0.0 0.0 0.00 0.00 0.00 69 1020.1
20260831193105 54 0 0.0 0.0 0.00 0.00 0.00 69 1020.0
20260831191608 54 0 0.0 0.0 0.00 0.00 0.00 69 1019.9
20260831190114 55 0 0.0 0.0 0.00 0.00 0.00 69 1019.9
20260831184604 55 0 0.0 0.0 0.00 0.00 0.00 69 1019.9
20260831183110 54 0 0.0 0.0 0.00 0.00 0.00 70 1020.2
20260831181604 54 0 0.0 0.0 0.00 0.00 0.00 71 1020.6
20260831180107 54 0 0.0 0.0 0.00 0.00 0.00 71 1020.9
20260831174610 54 0 0.0 0.0 0.00 0.00 0.00 71 1021.2
20260831173106 54 0 0.0 0.0 0.00 0.00 0.00 70 1021.4
20260831171559 54 0 0.0 0.0 0.00 0.00 0.00 71 1021.7
20260831170107 54 0 0.0 0.0 0.00 0.00 0.00 72 1022.0
20260831164610 53 0 0.0 0.0 0.00 0.00 0.00 73 1022.2
20260831163106 53 0 0.0 0.0 0.00 0.00 0.00 72 1022.4
20260831161610 53 0 0.0 0.0 0.00 0.00 0.00 71 1022.7
20260831160111 53 0 0.0 0.0 0.00 0.00 0.00 71 1023.1
20260831154634 53 0 0.0 0.0 0.00 0.00 0.00 70 1023.5
20260831153108 54 0 0.0 0.0 0.00 0.00 0.00 70 1023.8
20260831151608 53 0 0.0 0.0 0.00 0.00 0.00 70 1024.0
20260831144607 53 0 0.0 0.0 0.00 0.00 0.00 71 1024.1
20260831143110 53 0 0.0 0.0 0.00 0.00 0.00 71 1024.5
20260831141608 53 0 0.0 0.0 0.00 0.00 0.00 70 1024.5
20260831140101 53 0 0.0 0.0 0.00 0.00 0.00 69 1024.8
20260831134609 54 0 0.0 0.0 0.00 0.00 0.00 68 1025.2
20260831133109 53 0 0.0 0.0 0.00 0.00 0.00 70 1025.5
20260831131606 53 0 0.0 0.0 0.00 0.00 0.00 71 1025.9
20260831130120 53 0 0.0 0.0 0.00 0.00 0.00 71 1025.9
20260831124607 53 0 0.0 0.0 0.00 0.00 0.00 71 1026.0
20260831123111 52 0 0.0 0.0 0.00 0.00 0.00 73 1026.2
20260831121603 53 0 0.0 0.0 0.00 0.00 0.00 72 1026.2
20260831120105 54 0 0.0 0.0 0.00 0.00 0.00 70 1026.5
20260831114608 55 0 0.0 0.0 0.00 0.00 0.00 68 1026.5
20260831113139 56 0 0.0 0.0 0.00 0.00 0.00 68 1026.6
20260831111603 56 0 0.0 0.0 0.00 0.00 0.00 67 1026.6
20260831110109 56 0 0.0 0.0 0.00 0.00 0.00 67 1026.8
20260831104605 56 0 0.0 0.0 0.00 0.00 0.00 67 1026.8
20260831103113 56 0 0.0 0.0 0.00 0.00 0.00 68 1026.9
20260831101606 55 0 0.0 0.0 0.00 0.00 0.00 72 1027.1
20260831094614 56 0 0.0 0.0 0.00 0.00 0.00 81 1027.4
20260831093113 56 0 0.0 0.0 0.00 0.00 0.00 80 1027.6
20260831091601 56 0 0.0 0.0 0.00 0.00 0.00 79 1027.3
20260831090113 57 0 0.0 0.0 0.00 0.00 0.00 78 1027.5
20260831084602 58 0 0.0 0.0 0.00 0.00 0.00 77 1027.7
20260831083102 59 0 0.0 0.0 0.00 0.00 0.00 75 1027.8
20260831081610 60 0 0.0 0.0 0.00 0.00 0.00 74 1027.7
20260831080107 61 0 0.0 0.0 0.00 0.00 0.00 72 1027.7
20260831074604 63 0 0.0 0.0 0.00 0.00 0.00 72 1027.5
20260831073105 64 0 0.0 0.0 0.00 0.00 0.00 70 1027.5
20260831071605 65 0 0.0 0.0 0.00 0.00 0.00 66 1027.4
20260831070108 65 0 0.0 0.0 0.00 0.00 0.00 56 1027.4
20260831064559 65 0 0.0 0.0 0.00 0.00 0.00 54 1027.6
20260831063105 65 0 0.0 0.0 0.00 0.00 0.00 53 1027.7
20260831061611 66 0 0.0 0.0 0.00 0.00 0.00 52 1028.0
20260831060114 65 0 0.0 0.0 0.00 0.00 0.00 55 1028.2
20260831054601 65 0 0.0 0.0 0.00 0.00 0.00 55 1028.3
20260831053107 65 0 0.0 0.0 0.00 0.00 0.00 59 1028.4
20260831051611 66 0 0.0 0.0 0.00 0.00 0.00 59 1028.4
20260831050110 66 0 0.0 0.0 0.00 0.00 0.00 63 1028.6
20260831044614 66 0 0.0 0.0 0.00 0.00 0.00 62 1028.9
20260831043109 66 0 0.0 0.0 0.00 0.00 0.00 57 1029.1
20260831041604 65 0 0.0 0.0 0.00 0.00 0.00 63 1029.3
20260831040109 65 0 0.0 0.0 0.00 0.00 0.00 64 1029.5
20260831034603 65 0 0.0 0.0 0.00 0.00 0.00 60 1029.8
20260831033106 65 0 0.0 0.0 0.00 0.00 0.00 65 1030.1
20260831031604 64 0 0.0 0.0 0.00 0.00 0.00 68 1030.5
20260831030106 64 0 0.0 0.0 0.00 0.00 0.00 59 1030.7
20260831024605 64 0 0.0 0.0 0.00 0.00 0.00 62 1031.3
20260831023108 63 0 0.0 0.0 0.00 0.00 0.00 64 1031.3
20260831021606 63 0 0.0 0.0 0.00 0.00 0.00 61 1031.5
20260831020107 63 0 0.0 0.0 0.00 0.00 0.00 64 1031.7
20260831014608 62 0 0.0 0.0 0.00 0.00 0.00 63 1031.9
20260831013112 62 0 0.0 0.0 0.00 0.00 0.00 65 1032.0
20260831011605 62 0 0.0 0.0 0.00 0.00 0.00 68 1032.2
20260831010108 61 0 0.0 0.0 0.00 0.00 0.00 73 1032.3
20260831004609 60 0 0.0 0.0 0.00 0.00 0.00 73 1032.3
20260831003123 59 0 0.0 0.0 0.00 0.00 0.00 76 1032.3
20260831001617 58 0 0.0 0.0 0.00 0.00 0.00 76 1032.4
20260831000108 57 0 0.0 0.0 0.00 0.00 0.00 77 1032.4
20260830234612 55 0 0.0 0.0 0.00 0.00 0.00 80 1032.4
20260830233107 53 0 0.0 0.0 0.00 0.00 0.00 83 1032.6
20260830231607 51 0 0.0 0.0 0.00 0.00 0.00 86 1032.7
20260830230107 50 0 0.0 0.0 0.00 0.00 0.00 88 1032.6
20260830224605 50 0 0.0 0.0 0.00 0.00 0.00 89 1032.6
20260830223113 49 0 0.0 0.0 0.00 0.00 0.00 90 1032.5